[[{"header":{"parameterUnit":"m.s-1","parameterCategory":1,"la1":30.2991,"la2":30.254,"lo1":-89.0895,"lo2":-89.0444,"dy":0.0017,"dx":0.0017,"nx":28,"ny":28,"refTime":"2026-01-11T09:00:00:Z","depth":0,"parameterNumber":2,"parameterNumberName":"U-component_of_WINDS"},"data":[0,0,0,0,0,0,0,0,0,0,0,0,0,0,0,0,0,0,0,0,0,0,0,0,0,0,0,0,0,0,0,0,0,0,0,0,0,0,0,0,0,0,0,0,0,0,0,0,0,0,0,0,0,0,0,0,0,0,-2.0598,-2.0599,0,-2.0705,-2.0706,-2.0707,-2.0643,-2.0639,-2.0636,-2.0633,-2.0745,-2.0751,-2.0757,0,0,0,0,0,0,0,0,0,0,0,0,0,-2.0337,-2.0343,-2.0598,-2.0599,-2.06,-2.0705,-2.0706,-2.0708,-2.0643,-2.0639,-2.0636,-2.0632,-2.0743,-2.075,-2.0757,0,0,0,0,0,0,0,0,0,0,0,0,0,-2.0448,-2.0344,-2.0597,-2.0581,-2.058,-2.0704,-2.0706,-2.0708,-2.0644,-2.0639,-2.0635,-2.063,-2.0741,-2.075,-2.0758,-2.0906,0,0,-2.0785,-2.0789,0,0,0,0,0,0,0,0,-2.0442,-2.0458,-2.0582,-2.0582,-2.0582,-2.0655,-2.0655,-2.0774,-2.0645,-2.062,-2.0633,-2.0628,-2.0719,-2.073,-2.076,-2.0911,-2.0916,-2.0786,-2.0791,-2.0795,-2.0798,0,0,0,0,0,0,0,-2.0434,-2.0453,-2.064,-2.0584,-2.0584,-2.0568,-2.0578,-2.0678,-2.0694,-2.0622,-2.0617,-2.0631,-2.0718,-2.0752,-2.0762,-2.0917,-2.0786,-2.0794,-2.0799,-2.0802,-2.1192,-2.1197,0,0,0,0,0,0,-2.0428,-2.0447,-2.0637,-2.0643,-2.0499,-2.0576,-2.0588,-2.0637,-2.0693,-2.0697,-2.0634,-2.0627,-2.0739,-2.0752,-2.0766,-2.0941,-2.0795,-2.0803,-2.0808,-2.1187,-2.1193,-2.1198,0,0,0,0,0,0,-2.0423,-2.0445,-2.0632,-2.0544,-2.0566,-2.0586,-2.0641,-2.0641,-2.0674,-2.0703,-2.0706,-2.0665,-2.0736,-2.0753,-2.0871,-2.0944,-2.0807,-2.0815,-2.1181,-2.1189,-2.1196,-2.1293,0,0,0,0,0,0,-2.0415,-2.0444,-2.05,-2.0546,-2.0571,-2.0736,-2.0645,-2.0647,-2.0689,-2.0681,-2.0733,-2.0737,-2.0734,-2.0858,-2.0879,-2.0953,-2.0822,-2.1174,-2.1184,-2.1193,-2.1283,-2.1303,-2.1319,0,0,0,0,0,-2.0406,-2.0524,-2.0503,-2.0527,-2.0642,-2.074,-2.0755,-2.0748,-2.0696,-2.0752,-2.077,-2.0735,-2.0932,-2.087,-2.0894,-2.0972,-2.117,-2.1182,-2.1193,-2.1275,-2.1299,-2.1319,0,0,0,0,0,0,-2.0488,-2.053,-2.0507,-2.0643,-2.0689,-2.0729,-2.08,-2.0774,-2.0836,-2.0826,-2.0815,-2.0827,-2.0949,-2.0972,-2.0903,-2.1116,-2.1043,-2.1059,-2.1097,-2.112,-2.1138,-2.113,-2.0829,0,0,0,0,0,-2.0522,-2.0598,-2.063,-2.0747,-2.077,-2.0782,-2.0824,-2.0815,-2.0861,-2.0881,-2.0907,-2.0954,-2.1026,-2.1074,-2.1142,-2.1285,-2.1295,-2.135,-2.1368,-2.1383,-2.1398,-2.1474,-2.1498,-2.1236,-2.1236,-2.1236,0,0,-2.0593,-2.0625,-2.0674,-2.0764,-2.0798,-2.0876,-2.0798,-2.0885,-2.0943,-2.0894,-2.1006,-2.1027,-2.1078,-2.1209,-2.1267,-2.1231,-2.1472,-2.1398,-2.1409,-2.1416,-2.1488,-2.1513,-2.1535,-2.1244,-2.1242,-2.1241,0,0,-2.0762,-2.0794,-2.0894,-2.0929,-2.0981,-2.0987,-2.1011,-2.1055,-2.1067,-2.1178,-2.1142,-2.1211,-2.1336,-2.1374,-2.1409,-2.159,-2.156,-2.1612,-2.1708,-2.1782,-2.1802,-2.182,-2.1884,-2.1907,-2.1627,-2.1627,-2.1627,0,-2.0844,-2.0961,-2.095,-2.1038,-2.1079,-2.1036,-2.1137,-2.1171,-2.1243,-2.1272,-2.123,-2.1385,-2.1417,-2.1554,-2.1598,-2.1628,-2.1655,-2.1607,-2.18,-2.1818,-2.1835,-2.1896,-2.192,-2.1633,-2.1632,-2.1632,-2.1631,0,-2.1058,-2.114,-2.1214,-2.1283,-2.1331,-2.1426,-2.1429,-2.148,-2.1465,-2.1476,-2.1589,-2.1625,-2.1699,-2.1731,-2.1719,-2.1867,-2.1842,-2.1801,-2.1727,-2.1866,-2.1923,-2.1946,-2.1642,-2.164,-2.1638,-2.1636,0,0,-2.1285,-2.1344,-2.1371,-2.1401,-2.1454,-2.1516,-2.1608,-2.1679,-2.1722,-2.1772,-2.1849,-2.1954,-2.1915,-2.1955,-2.1947,-2.2012,-2.2151,-2.1961,-2.1962,-2.1995,-2.2314,-2.2345,-2.2373,-2.213,-2.2135,-2.2138,-2.231,0,-2.1457,-2.1617,-2.1608,-2.1758,-2.1832,-2.1791,-2.1871,-2.1912,-2.1923,-2.1988,-2.2,-2.2075,-2.2018,-2.2042,-2.2104,-2.2121,-2.2215,-2.2108,-2.2201,-2.2205,-2.219,-2.2402,-2.2436,-2.2596,-2.2332,-2.2336,-2.2338,0,-2.1679,-2.1735,-2.1893,-2.1932,-2.1962,-2.2035,-2.2098,-2.216,-2.2204,-2.2208,-2.2252,-2.2232,-2.2324,-2.2247,-2.2373,-2.2301,-2.2338,-2.2352,-2.2358,-2.2367,-2.228,-2.2417,-2.2647,-2.2671,-2.2373,-2.2371,-2.2368,0,-2.1828,-2.1942,-2.2051,-2.2077,-2.2126,-2.2178,-2.22,-2.224,-2.2283,-2.2338,-2.2365,-2.2431,-2.2467,-2.2518,-2.2516,-2.246,-2.2644,-2.2567,-2.2649,-2.2649,-2.269,-2.2688,-2.293,-2.2715,-2.2714,-2.2714,-2.2713,0,-2.2021,-2.2119,-2.2118,-2.2185,-2.2292,-2.2281,-2.2387,-2.2405,-2.244,-2.2509,-2.2478,-2.2543,-2.2536,-2.2602,-2.2601,-2.2705,-2.2722,-2.2727,-2.2725,-2.273,-2.2729,-2.2754,-2.2743,-2.272,-2.2719,-2.2717,-2.2716,0,-2.2205,-2.2209,-2.2324,-2.236,-2.2371,-2.2449,-2.2479,-2.2542,-2.2549,-2.2637,-2.2657,-2.267,-2.2745,-2.2747,-2.2835,-2.2833,-2.296,-2.2947,-2.2945,-2.2943,-2.3025,-2.3017,-2.3292,-2.3327,-2.3089,-2.3091,-2.3093,0,-2.2329,-2.2402,-2.2445,-2.2489,-2.2514,-2.2585,-2.2627,-2.2618,-2.2664,-2.2719,-2.2775,-2.2847,-2.2904,-2.3026,-2.3043,-2.3109,-2.3097,-2.3188,-2.3107,-2.3108,-2.3097,-2.3093,-2.31,-2.3205,-2.3207,-2.321,-2.3211,0,-2.2547,-2.2544,-2.2606,-2.2669,-2.272,-2.2769,-2.2814,-2.2852,-2.2848,-2.29,-2.2976,-2.3021,-2.3108,-2.318,-2.3243,-2.3266,-2.3239,-2.3237,-2.3259,-2.3265,-2.326,-2.3263,-2.2989,-2.3231,-2.3229,-2.3227,-2.3226,-2.3226,-2.2704,-2.2767,-2.2806,-2.2876,-2.2909,-2.2951,-2.3011,-2.3026,-2.3089,-2.3159,-2.3149,-2.3234,-2.3274,-2.3356,-2.3384,-2.345,-2.3418,-2.3451,-2.3459,-2.3468,-2.3476,-2.325,-2.3462,-2.3461,-2.346,-2.346,-2.346,0,-2.292,-2.2942,-2.3007,-2.307,-2.3125,-2.3092,-2.3139,-2.3187,-2.3262,-2.3302,-2.3358,-2.3444,-2.3513,-2.3534,-2.3601,-2.3649,-2.3638,-2.3667,-2.3663,-2.3668,-2.3501,-2.3475,-2.3675,-2.3674,-2.3674,-2.3674,-2.3674,-2.3674,-2.3039,-2.3143,-2.3144,-2.3264,-2.3286,-2.3367,-2.3397,-2.3436,-2.3467,-2.3565,-2.3621,-2.3634,-2.3666,-2.3734,-2.3795,-2.38,-2.3825,-2.386,-2.3859,-2.3702,-2.3681,-2.366,-2.3635,-2.3866,-2.3866,-2.4021,-2.4022,-2.4023]},{"header":{"parameterUnit":"m.s-1","parameterCategory":1,"la1":30.2991,"la2":30.254,"lo1":-89.0895,"lo2":-89.0444,"dy":0.0017,"dx":0.0017,"nx":28,"ny":28,"refTime":"2026-01-11T09:00:00:Z","depth":0,"parameterNumber":3,"parameterNumberName":"V-component_of_WINDS"},"data":[0,0,0,0,0,0,0,0,0,0,0,0,0,0,0,0,0,0,0,0,0,0,0,0,0,0,0,0,0,0,0,0,0,0,0,0,0,0,0,0,0,0,0,0,0,0,0,0,0,0,0,0,0,0,0,0,0,0,-4.2891,-4.2893,0,-4.2993,-4.2994,-4.2995,-4.2932,-4.2929,-4.2926,-4.2924,-4.3024,-4.303,-4.3035,0,0,0,0,0,0,0,0,0,0,0,0,0,-4.264,-4.2645,-4.2891,-4.2893,-4.2894,-4.2992,-4.2994,-4.2995,-4.2933,-4.2929,-4.2926,-4.2922,-4.3023,-4.3029,-4.3036,0,0,0,0,0,0,0,0,0,0,0,0,0,-4.2746,-4.2646,-4.2891,-4.2875,-4.2874,-4.2992,-4.2994,-4.2996,-4.2934,-4.2929,-4.2925,-4.2921,-4.3021,-4.3028,-4.3036,-4.3175,0,0,-4.3061,-4.3065,0,0,0,0,0,0,0,0,-4.274,-4.2755,-4.2876,-4.2876,-4.2876,-4.2945,-4.2942,-4.3056,-4.2935,-4.2911,-4.2924,-4.2919,-4.3002,-4.3011,-4.304,-4.318,-4.3184,-4.3062,-4.3067,-4.307,-4.3073,0,0,0,0,0,0,0,-4.2732,-4.275,-4.2931,-4.2878,-4.2878,-4.2861,-4.2871,-4.2963,-4.298,-4.2913,-4.2908,-4.2921,-4.3001,-4.3032,-4.3041,-4.3186,-4.3062,-4.3069,-4.3074,-4.3077,-4.3442,-4.3447,0,0,0,0,0,0,-4.2727,-4.2745,-4.2928,-4.2934,-4.2796,-4.2869,-4.288,-4.2927,-4.2979,-4.2982,-4.2925,-4.2918,-4.302,-4.3032,-4.3045,-4.3209,-4.307,-4.3078,-4.3083,-4.3437,-4.3443,-4.3448,0,0,0,0,0,0,-4.2722,-4.2744,-4.2924,-4.2838,-4.286,-4.2878,-4.2931,-4.2932,-4.2963,-4.2988,-4.299,-4.2954,-4.3017,-4.3033,-4.3143,-4.3211,-4.3082,-4.3089,-4.3432,-4.3439,-4.3446,-4.3539,0,0,0,0,0,0,-4.2715,-4.2742,-4.2797,-4.284,-4.2865,-4.3022,-4.2936,-4.2937,-4.2978,-4.2969,-4.3016,-4.3019,-4.3015,-4.3131,-4.3151,-4.322,-4.3095,-4.3425,-4.3435,-4.3443,-4.353,-4.3549,-4.3565,0,0,0,0,0,-4.2706,-4.2819,-4.28,-4.2822,-4.2933,-4.3026,-4.304,-4.3034,-4.2983,-4.3037,-4.3053,-4.3018,-4.3201,-4.3143,-4.3165,-4.3238,-4.3421,-4.3432,-4.3443,-4.3522,-4.3545,-4.3564,0,0,0,0,0,0,-4.2782,-4.2824,-4.2804,-4.2934,-4.2977,-4.3016,-4.3083,-4.3058,-4.3116,-4.3106,-4.3094,-4.3105,-4.3219,-4.3239,-4.3174,-4.3373,-4.3303,-4.3319,-4.3356,-4.3378,-4.3395,-4.3387,-4.3102,0,0,0,0,0,-4.2814,-4.2888,-4.292,-4.3032,-4.3055,-4.3065,-4.3106,-4.3097,-4.314,-4.3158,-4.3182,-4.3225,-4.3291,-4.3336,-4.3399,-4.3533,-4.354,-4.3593,-4.361,-4.3625,-4.3638,-4.3708,-4.3731,-4.3484,-4.3484,-4.3483,0,0,-4.2881,-4.2913,-4.296,-4.3048,-4.308,-4.3155,-4.3081,-4.3164,-4.3218,-4.317,-4.3275,-4.3294,-4.334,-4.3462,-4.3517,-4.3483,-4.3708,-4.3638,-4.3649,-4.3655,-4.3721,-4.3745,-4.3766,-4.3491,-4.349,-4.3489,0,0,-4.3041,-4.3074,-4.3169,-4.3203,-4.3253,-4.3259,-4.3282,-4.3324,-4.3335,-4.344,-4.3405,-4.3469,-4.3585,-4.3619,-4.3652,-4.3822,-4.3792,-4.3843,-4.3933,-4.4002,-4.4021,-4.4038,-4.4097,-4.4119,-4.3857,-4.3857,-4.3857,0,-4.3118,-4.323,-4.3221,-4.3306,-4.3345,-4.3305,-4.3401,-4.3434,-4.3502,-4.3528,-4.3489,-4.3632,-4.3661,-4.3789,-4.3831,-4.3859,-4.3883,-4.3838,-4.4019,-4.4036,-4.4052,-4.4108,-4.4131,-4.3863,-4.3862,-4.3861,-4.3861,0,-4.332,-4.3399,-4.347,-4.3537,-4.3583,-4.3673,-4.3677,-4.3724,-4.3711,-4.3721,-4.3827,-4.386,-4.3928,-4.3958,-4.3946,-4.4084,-4.406,-4.4021,-4.395,-4.4082,-4.4134,-4.4156,-4.3871,-4.3869,-4.3867,-4.3866,0,0,-4.3532,-4.3592,-4.3618,-4.3647,-4.3698,-4.3758,-4.3845,-4.3912,-4.3952,-4.4,-4.4071,-4.4169,-4.4132,-4.4169,-4.416,-4.422,-4.4351,-4.4173,-4.4173,-4.4203,-4.4503,-4.4532,-4.4557,-4.4331,-4.4335,-4.4339,-4.4498,0,-4.3693,-4.3847,-4.3841,-4.3983,-4.4054,-4.4016,-4.4092,-4.413,-4.4142,-4.4202,-4.4213,-4.4282,-4.4229,-4.4251,-4.4309,-4.4323,-4.4411,-4.4311,-4.4396,-4.4399,-4.4384,-4.4585,-4.4616,-4.4765,-4.4519,-4.4522,-4.4525,0,-4.3903,-4.3957,-4.4107,-4.4146,-4.4176,-4.4244,-4.4304,-4.4363,-4.4405,-4.4408,-4.4449,-4.443,-4.4516,-4.4443,-4.456,-4.4493,-4.4526,-4.4538,-4.4544,-4.4551,-4.4469,-4.4595,-4.4813,-4.4835,-4.4558,-4.4555,-4.4553,0,-4.404,-4.4151,-4.4254,-4.428,-4.4329,-4.4377,-4.44,-4.4437,-4.4478,-4.4529,-4.4555,-4.4616,-4.4649,-4.4696,-4.4693,-4.4641,-4.4811,-4.4739,-4.4815,-4.4815,-4.4852,-4.4849,-4.5076,-4.4876,-4.4876,-4.4875,-4.4875,0,-4.422,-4.4313,-4.4316,-4.438,-4.4481,-4.4473,-4.4573,-4.459,-4.4624,-4.4689,-4.466,-4.4721,-4.4713,-4.4774,-4.4772,-4.4868,-4.4884,-4.4888,-4.4886,-4.489,-4.4889,-4.4911,-4.49,-4.4881,-4.488,-4.4879,-4.4878,0,-4.439,-4.4397,-4.4507,-4.4543,-4.4555,-4.4628,-4.4658,-4.4717,-4.4725,-4.4807,-4.4826,-4.4838,-4.4908,-4.491,-4.499,-4.4988,-4.5105,-4.5092,-4.5091,-4.5088,-4.5164,-4.5156,-4.5412,-4.5444,-4.5224,-4.5226,-4.5228,0,-4.4505,-4.4575,-4.4619,-4.4661,-4.4686,-4.4754,-4.4794,-4.4788,-4.4831,-4.4883,-4.4935,-4.5003,-4.5056,-4.5169,-4.5184,-4.5245,-4.5232,-4.5318,-4.5241,-4.5242,-4.5231,-4.5227,-4.5233,-4.5332,-4.5335,-4.5337,-4.5338,0,-4.4707,-4.4706,-4.4766,-4.4827,-4.4876,-4.4924,-4.4968,-4.5003,-4.5001,-4.5051,-4.5122,-4.5164,-4.5245,-4.5312,-4.537,-4.5391,-4.5364,-4.5362,-4.5383,-4.5387,-4.5383,-4.5385,-4.5131,-4.5356,-4.5355,-4.5353,-4.5352,-4.5352,-4.4851,-4.4911,-4.4951,-4.5019,-4.5051,-4.5092,-4.5149,-4.5164,-4.5224,-4.529,-4.5282,-4.5361,-4.5399,-4.5475,-4.55,-4.5561,-4.5531,-4.5561,-4.5568,-4.5576,-4.5583,-4.5374,-4.5571,-4.5571,-4.557,-4.557,-4.557,0,-4.505,-4.5074,-4.5136,-4.5198,-4.5251,-4.5222,-4.5268,-4.5313,-4.5384,-4.5422,-4.5475,-4.5556,-4.5619,-4.5639,-4.57,-4.5745,-4.5734,-4.5761,-4.5757,-4.5762,-4.5607,-4.5583,-4.5769,-4.5769,-4.5769,-4.5769,-4.5768,-4.5768,-4.516,-4.5259,-4.5263,-4.5377,-4.5399,-4.5477,-4.5506,-4.5543,-4.5573,-4.5665,-4.5718,-4.573,-4.5761,-4.5823,-4.588,-4.5884,-4.5907,-4.5939,-4.5938,-4.5793,-4.5773,-4.5754,-4.5731,-4.5945,-4.5945,-4.6087,-4.6088,-4.6089]}]]